Location: Newark
(45.9456°N, 15.4064°E)
Time: 15:12:37
(UTC+00:00)

Courier 1B Rocket - Pass Details

Date: 27 January 2020
Orbit: 920 x 1202 km, 28.2° (Epoch: 21 February)

Event Time Altitude Azimuth Distance (km) Brightness Sun altitude
Rises 08:51:48 0° 207° (SSW) 4,018 8.6 18.2°
Reaches altitude 10° 08:57:48 10° 171° (S) 2,989 9.0 18.8°
Maximum altitude 08:59:07 11° 161° (SSE) 2,932 9.4 18.9°
Drops below altitude 10° 09:00:25 10° 150° (SSE) 2,953 10.0 19.1°
Sets 09:06:08 0° 114° (ESE) 3,825 9.0 19.6°
